Location: Launay
(47.2429°N, 1.5727°E)
Time: 07:01:25
(UTC+00:00)

Cosmos 1733 - Pass Details

Date: 19 May 2025
Orbit: 375 x 381 km, 82.5° (Epoch: 18 June)

Event Time Altitude Azimuth Distance (km) Brightness Sun altitude
Rises 20:33:53 0° 359° (N) 2,308 7.2 -9.6°
Reaches altitude 10° 20:36:03 10° 10° (N) 1,444 6.0 -9.9°
Maximum altitude 20:38:53 31° 75° (ENE) 724 3.7 -10.2°
Enters shadow 20:40:47 17° 130° (SE) 1,099 4.2 -10.5°
